Hlavní strana
METAR-TAF:

METAR-TAF

Letiště :

Watauga County Hospital Heliport

Boone, Severní Karolína, Spojené státy americké

zeměpisná šířka: 36-12N, zeměpisná délka: 081-39W, výška: 959 m

Aktuální stav počasí

Zpráva byla vytvořena před 36 minutami, v 11:30 UTC
Západoseverozápadní vítr 11 kt s nárazy do 27 kt
Teplota 21°C
Vlhkost vzduchu 78%
Tlak 1015 hPa
Viditelnost: 16.1 km

METAR: KTNB 211130Z AUTO 30011G27KT 10SM 21/17 A2998 RMK AO2 T02100169

Čas: 08:06 (12:06 UTC)


TAF: chybějící

Stav a předpovědi počasí z více než 4 000 letišť (zprávy METAR a TAF).

Červené a žluté tečky na mapě představují dostupné meteorologické stanice.

Když kurzor umístíte na tečku, zobrazí se název stanice.

Pak kliknutím zobrazíte stav a předpověď počasí.

Chcete-li změnit mapu, kliknutím na zelené tlačítko se znaménkem +mapu přiblížíte, kliknutím na zelené tlačítko se znaménkem – mapu oddálíte a kliknutím na zelené šipky přejdete na sousední mapy.


METAR-TAF: